YAOGAN-26

Last updated on Thu Oct 30 2025 00:02:31 GMT+0000 (Coordinated Universal Time)

1 40362U 14088A 25302.49860918 .00021778 00000+0 59877-3 0 9996 2 40362 97.0666 304.8151 0006778 143.3294 216.8416 15.37190652602147
UTC large
Height (km)
Speed (km/s)
/
Latitude / Longitude
Inclination (degrees)
Orbital Period (minutes)
Azimuth
Elevation
Range (km)
Doppler Factor

Next 0 passes for location: London (51.5072 / 0.1276)

Sorry there are no passes over London.